Weather in Yarovoye

Russia / Kurgan Oblast     54°53′06″N   66°13′26″E
temp.,
°C
wind,
m/s
gust,
m/s
humid.,
%
clouds,
%
prec.,
mm/h
press.,
hPa
HPBL,
m
12 may, wed
wed1223:00+15wnw3538100 0.0 102771
02:00+14wnw33395 0.0 102630
05:00+12wnw344542 0.0 102752
08:00+18wnw573445 0.0 1026346
11:00+23wnw5624100 0.0 10261244
14:00+24nw7828100 0.0 10242359
17:00+23nnw683577 0.0 10252172
20:00+19nne5104023 0.0 1025325
13 may, thu
thu1323:00+15nne33499 0.0 102643
02:00+13nne225534 0.0 102610
05:00+13w235799 0.0 102722
08:00+18wnw574441 0.0 1026423
11:00+23wnw68356 0.0 10251619
14:00+26nw79295 0.0 10232405
17:00+26nw79306 0.0 10232425
20:00+22nnw35435 0.0 102363
14 may, fri
fri1423:00+19ne3753100 0.0 1025220
02:00+16ne36700 0.0 1026108
05:00+14ene22737 0.0 102822
08:00+19e22495 0.0 1028385
11:00+24e11345 0.0 10281167
14:00+26w13305 0.0 10262071
17:00+27wsw45305 0.0 10252616
20:00+24sw46410 0.0 102499
15 may, sat
sat1523:00+21sw484637 0.0 1024120
02:00+19sw413525 0.0 1023246
05:00+17wsw39575 0.0 1023171
08:00+23w46435 0.0 1023377
11:00+28w45295 0.0 10221269
14:00+30w67245 0.0 10212729
17:00+30wnw67235 0.0 10202773
20:00+25w34375 0.0 102060
16 may, sun
sun1623:00+22w46455 0.0 101993
02:00+19w410495 0.0 1019171
05:00+18wnw485452 0.0 1019147
08:00+23nw464247 0.0 1020381
11:00+27nw57347 0.0 10201471
14:00+29nw682920 0.0 10192520
17:00+29nnw67315 0.0 10192243
20:00+25n22425 0.0 101916